Home   Weather   Manhattan   Past weeks
Flag for USA

Past Weather in Manhattan, Kansas, USA — Yesterday and Last 2 Weeks

Now
58 °F

Sunny.


Feels Like: 55 °F
Forecast: 55 / 24 °F
Wind: 14 mph from Southwest

Location: Manhattan Municipal Airport

Current Time: Dec 7, 2019 at 3:39:36 pm

Latest Report: Dec 7, 2019 at 2:52 pm


Visibility: 10 mi

Pressure: 30.10 "Hg

Humidity: 27%

Dew Point: 24 °F

Location of ManhattanLocation

Past Weather in Manhattan — Graph

°F

Manhattan Temperature Yesterday

Maximum temperature yesterday: 44 °F (at 2:52 pm)
Minimum temperature yesterday: 23 °F (at 11:52 pm)
Average temperature yesterday: 34 °F

High & Low Weather Summary for the Past Weeks

 TemperatureHumidityPressure
High63 °F (Nov 24, 2:52 pm)97% (Nov 28, 9:39 pm)30.50 "Hg (Nov 28, 9:39 pm)
Low21 °F (Dec 2, 2:52 am)23% (Dec 2, 3:52 pm)29.34 "Hg (Nov 26, 5:37 pm)
Average38 °F72%29.99 "Hg
* Reported Nov 22 1:06 pm — Dec 7 1:52 pm, Manhattan. Weather by CustomWeather, © 2019

Note: Actual official high and low records may vary slightly from our data, if they occured in-between our weather recording intervals... More about our weather records

Manhattan Weather History for the Previous 24 Hours

Scroll right to see more
 ConditionsComfort  
Time TempWeatherWind HumidityBarometerVisibility
1:52 pm
Sat, Dec 7
57 °FSunny.20 mph27%30.13 "Hg10 mi
12:52 pm54 °FSunny.13 mph33%30.17 "Hg10 mi
11:52 am49 °FSunny.13 mph41%30.23 "Hg10 mi
10:52 am43 °FSunny.14 mph56%30.28 "Hg10 mi
9:52 am37 °FSunny.9 mph70%30.29 "Hg10 mi
8:52 am31 °FSunny.6 mph82%30.31 "Hg10 mi
7:52 am21 °FSunny.No wind88%30.32 "Hg10 mi
6:52 am21 °FClear.No wind85%30.33 "Hg10 mi
5:52 am22 °FClear.No wind89%30.33 "Hg10 mi
4:52 am21 °FClear.No wind88%30.34 "Hg10 mi
3:52 am22 °FClear.No wind85%30.34 "Hg10 mi
2:52 am21 °FClear.No wind88%30.37 "Hg10 mi
1:52 am22 °FClear.No wind89%30.37 "Hg10 mi
12:52 am23 °FClear.No wind85%30.37 "Hg10 mi
11:52 pm
Fri, Dec 6
23 °FClear.No wind85%30.40 "Hg10 mi
10:52 pm24 °FClear.No wind81%30.39 "Hg10 mi
9:52 pm27 °FClear.No wind75%30.40 "Hg10 mi
8:52 pm25 °FClear.No wind81%30.41 "Hg10 mi
7:52 pm27 °FClear.No wind75%30.42 "Hg10 mi
6:52 pm27 °FClear.No wind75%30.41 "Hg10 mi
5:52 pm33 °FClear.3 mph61%30.40 "Hg10 mi
4:52 pm41 °FSunny.5 mph45%30.40 "Hg10 mi
3:52 pm43 °FSunny.5 mph43%30.40 "Hg10 mi
Weather by CustomWeather, © 2019

See weather overview

Advertising